TimeEDT,TemperatureF,Dew PointF,Humidity,Sea Level PressureIn,VisibilityMPH,Wind Direction,Wind SpeedMPH,Gust SpeedMPH,PrecipitationIn,Events,Conditions,WindDirDegrees,DateUTC
12:15 AM,42.8,33.8,70,30.59,10.0,ENE,10.4,18.4,N/A,,Mostly Cloudy,70,2013-04-23 04:15:00
12:35 AM,42.8,33.8,70,30.59,10.0,ENE,11.5,-,N/A,,Overcast,70,2013-04-23 04:35:00
12:55 AM,42.8,33.8,70,30.59,10.0,ENE,9.2,-,N/A,,Overcast,70,2013-04-23 04:55:00
1:15 AM,42.8,33.8,70,30.57,10.0,ENE,10.4,-,N/A,,Overcast,70,2013-04-23 05:15:00
1:35 AM,42.8,35.6,76,30.57,10.0,ENE,10.4,-,N/A,,Overcast,60,2013-04-23 05:35:00
1:55 AM,42.8,35.6,76,30.55,10.0,NE,11.5,-,N/A,,Overcast,50,2013-04-23 05:55:00
2:15 AM,42.8,35.6,76,30.54,10.0,ENE,10.4,-,N/A,,Overcast,60,2013-04-23 06:15:00
2:35 AM,42.8,35.6,76,30.53,10.0,NE,11.5,-,N/A,,Overcast,40,2013-04-23 06:35:00
2:55 AM,42.8,35.6,76,30.53,10.0,NE,12.7,-,N/A,,Overcast,50,2013-04-23 06:55:00
3:15 AM,42.8,35.6,76,30.52,10.0,NE,13.8,-,N/A,,Overcast,50,2013-04-23 07:15:00
3:35 AM,42.8,37.4,81,30.51,10.0,NE,10.4,-,N/A,,Overcast,50,2013-04-23 07:35:00
3:55 AM,42.8,37.4,81,30.51,2.5,NE,12.7,-,N/A,,Overcast,50,2013-04-23 07:55:00
4:15 AM,42.8,39.2,87,30.51,1.2,NE,9.2,-,N/A,,Light Drizzle,50,2013-04-23 08:15:00
4:35 AM,42.8,39.2,87,30.51,0.8,NE,11.5,17.3,N/A,,Drizzle,40,2013-04-23 08:35:00
4:55 AM,41.0,39.2,93,30.50,1.0,NE,9.2,-,N/A,,Light Drizzle,40,2013-04-23 08:55:00
5:15 AM,41.0,39.2,93,30.50,1.0,NE,11.5,18.4,N/A,,Drizzle,40,2013-04-23 09:15:00
5:35 AM,41.0,39.2,93,30.49,1.0,NE,11.5,-,N/A,,Drizzle,50,2013-04-23 09:35:00
5:55 AM,42.8,39.2,87,30.50,1.0,NE,9.2,-,N/A,,Drizzle,40,2013-04-23 09:55:00
6:15 AM,42.8,41.0,93,30.49,0.8,NE,11.5,-,N/A,,Drizzle,40,2013-04-23 10:15:00
6:35 AM,42.8,41.0,93,30.49,1.0,NE,11.5,16.1,N/A,Rain,Light Rain,40,2013-04-23 10:35:00
6:55 AM,42.8,41.0,93,30.48,1.0,NNE,11.5,18.4,N/A,,Drizzle,30,2013-04-23 10:55:00
7:15 AM,42.8,41.0,93,30.48,2.5,NE,11.5,17.3,N/A,,Light Drizzle,40,2013-04-23 11:15:00
7:35 AM,42.8,41.0,93,30.48,4.0,NE,12.7,-,N/A,,Light Drizzle,40,2013-04-23 11:35:00
7:55 AM,42.8,41.0,93,30.48,4.0,NE,13.8,21.9,N/A,,Light Drizzle,40,2013-04-23 11:55:00
8:15 AM,42.8,41.0,93,30.47,4.0,NE,13.8,17.3,N/A,,Overcast,50,2013-04-23 12:15:00
8:35 AM,44.6,41.0,87,30.47,4.0,NNE,11.5,18.4,N/A,,Overcast,30,2013-04-23 12:35:00
8:55 AM,44.6,41.0,87,30.46,4.0,NE,13.8,18.4,N/A,,Overcast,40,2013-04-23 12:55:00
9:15 AM,44.6,41.0,87,30.45,3.0,NNE,11.5,17.3,N/A,,Light Drizzle,30,2013-04-23 13:15:00
9:35 AM,44.6,41.0,87,30.45,3.0,NNE,9.2,17.3,N/A,,Overcast,30,2013-04-23 13:35:00
9:55 AM,44.6,42.8,93,30.45,4.0,NNE,9.2,16.1,0.01,Rain,Light Rain,30,2013-04-23 13:55:00
10:15 AM,44.6,42.8,93,30.44,3.0,NNE,8.1,-,N/A,,Light Drizzle,30,2013-04-23 14:15:00
10:35 AM,44.6,42.8,93,30.44,4.0,NNE,10.4,16.1,N/A,,Light Drizzle,30,2013-04-23 14:35:00
10:55 AM,44.6,42.8,93,30.44,5.0,NE,10.4,16.1,N/A,,Overcast,40,2013-04-23 14:55:00
11:15 AM,44.6,42.8,93,30.43,5.0,NE,11.5,17.3,N/A,,Overcast,40,2013-04-23 15:15:00
11:35 AM,44.6,42.8,93,30.43,5.0,NE,9.2,16.1,N/A,,Overcast,40,2013-04-23 15:35:00
11:55 AM,44.6,42.8,93,30.42,5.0,NNE,12.7,17.3,N/A,,Overcast,30,2013-04-23 15:55:00
12:15 PM,44.6,42.8,93,30.41,4.0,NNE,10.4,18.4,N/A,,Overcast,20,2013-04-23 16:15:00
12:35 PM,44.6,42.8,93,30.40,2.5,NNE,9.2,17.3,N/A,Rain,Light Rain,20,2013-04-23 16:35:00
12:55 PM,44.6,42.8,93,30.38,3.0,NNE,9.2,18.4,N/A,,Overcast,20,2013-04-23 16:55:00
1:15 PM,44.6,42.8,93,30.37,2.5,NNE,10.4,17.3,N/A,Rain,Light Rain,20,2013-04-23 17:15:00
1:35 PM,44.6,42.8,93,30.36,3.0,North,10.4,17.3,N/A,Rain,Light Rain,10,2013-04-23 17:35:00
1:55 PM,44.6,42.8,93,30.35,2.5,NNE,10.4,17.3,N/A,Rain,Light Rain,20,2013-04-23 17:55:00
2:15 PM,44.6,42.8,93,30.34,3.0,NNE,13.8,23.0,0.01,Rain,Light Rain,20,2013-04-23 18:15:00
2:35 PM,44.6,42.8,93,30.33,3.0,NNE,11.5,18.4,0.01,Rain,Light Rain,20,2013-04-23 18:35:00
2:55 PM,44.6,42.8,93,30.32,4.0,NNE,9.2,20.7,0.01,Rain,Light Rain,30,2013-04-23 18:55:00
3:15 PM,44.6,42.8,93,30.31,3.0,NNE,12.7,18.4,N/A,Rain,Light Rain,20,2013-04-23 19:15:00
3:35 PM,44.6,42.8,93,30.30,3.0,NNE,11.5,18.4,0.01,Rain,Light Rain,20,2013-04-23 19:35:00
3:55 PM,44.6,42.8,93,30.29,3.0,NNE,11.5,19.6,0.01,Rain,Light Rain,20,2013-04-23 19:55:00
4:15 PM,44.6,42.8,93,30.28,3.0,NNE,11.5,19.6,0.01,Rain,Light Rain,20,2013-04-23 20:15:00
4:35 PM,44.6,42.8,93,30.28,3.0,North,11.5,20.7,0.02,Rain,Light Rain,10,2013-04-23 20:35:00
4:55 PM,44.6,42.8,93,30.27,3.0,North,11.5,19.6,0.03,Rain,Light Rain,360,2013-04-23 20:55:00
5:15 PM,44.6,42.8,93,30.27,3.0,North,11.5,21.9,0.01,Rain,Light Rain,360,2013-04-23 21:15:00
5:35 PM,44.6,42.8,93,30.26,3.0,North,10.4,19.6,0.02,Rain,Rain,360,2013-04-23 21:35:00
5:55 PM,44.6,42.8,93,30.25,3.0,North,13.8,23.0,0.03,Rain,Light Rain,360,2013-04-23 21:55:00
6:15 PM,44.6,42.8,93,30.25,1.8,North,16.1,25.3,0.01,Rain,Rain,360,2013-04-23 22:15:00
6:35 PM,44.6,42.8,93,30.24,1.2,North,13.8,26.5,0.02,,Overcast,360,2013-04-23 22:35:00
6:55 PM,42.8,42.8,100,30.23,1.5,North,16.1,27.6,0.03,,Overcast,360,2013-04-23 22:55:00
7:15 PM,42.8,42.8,100,30.21,1.5,North,12.7,24.2,N/A,Rain,Light Rain,360,2013-04-23 23:15:00
7:35 PM,42.8,42.8,100,30.21,2.0,North,12.7,21.9,N/A,,Drizzle,10,2013-04-23 23:35:00
7:55 PM,42.8,42.8,100,30.20,2.0,North,15.0,24.2,N/A,Rain,Light Rain,10,2013-04-23 23:55:00
8:15 PM,42.8,42.8,100,30.19,2.0,North,12.7,23.0,N/A,,Light Drizzle,360,2013-04-24 00:15:00
8:35 PM,42.8,42.8,100,30.20,9.0,North,11.5,27.6,N/A,,Light Drizzle,360,2013-04-24 00:35:00
8:55 PM,44.6,42.8,93,30.19,4.0,North,13.8,23.0,N/A,,Light Drizzle,360,2013-04-24 00:55:00
9:15 PM,44.6,42.8,93,30.18,5.0,North,10.4,21.9,N/A,,Light Drizzle,360,2013-04-24 01:15:00
9:35 PM,44.6,42.8,93,30.17,3.0,North,12.7,24.2,N/A,,Light Drizzle,360,2013-04-24 01:35:00
9:55 PM,44.6,42.8,93,30.16,4.0,North,12.7,26.5,N/A,,Light Drizzle,360,2013-04-24 01:55:00
10:15 PM,44.6,42.8,93,30.14,5.0,North,10.4,24.2,N/A,,Light Drizzle,10,2013-04-24 02:15:00
10:35 PM,44.6,42.8,93,30.14,5.0,North,13.8,21.9,N/A,,Light Drizzle,360,2013-04-24 02:35:00
10:55 PM,44.6,42.8,93,30.13,1.2,North,12.7,19.6,N/A,,Overcast,360,2013-04-24 02:55:00
11:15 PM,44.6,42.8,93,30.12,1.8,NNW,13.8,20.7,0.01,Rain,Light Rain,340,2013-04-24 03:15:00
11:35 PM,44.6,42.8,93,30.10,4.0,North,13.8,20.7,0.02,Rain,Light Rain,360,2013-04-24 03:35:00
11:55 PM,44.6,42.8,93,30.09,3.0,North,13.8,21.9,0.02,Rain,Light Rain,360,2013-04-24 03:55:00